Location: Marsån
(66.4167°N, 22.2833°E)
Time: 07:51:25
(UTC+00:00)

Terra - Pass Details

Date: 24 February 2024
Orbit: 692 x 696 km, 98.1° (Epoch: 21 April)

Event Time Altitude Azimuth Distance (km) Brightness Sun altitude
Exits shadow 20:16:06 38° 246° (WSW) 1,072 2.8 -27.7°
Maximum altitude 20:16:40 39° 263° (W) 1,044 2.9 -27.8°
Drops below altitude 10° 20:21:08 10° 333° (NNW) 2,173 5.3 -28.1°
Sets 20:23:33 0° 341° (NNW) 3,096 6.2 -28.2°
